When you browse on this site, cookies collect data to enhance your experience and personalize the content and advertising you see.
Visit our Privacy Policy to learn more. By continuing to use the site, you agree to this use of cookies and data.
  • In United Kingdom
  • List of Countries
  • For 7 days
  • Water Temperature
  • Satellite Maps
  • Weather Map
  • Weather Widgets
  • user-avatar
    Login

    Hourly Weather San Pablo Huixtepec

    Today, 16 June, Sunday

    Time Temperature Precipitation Wind Pressure Humidity
    00:00 +20°C° 0 mm 2 mps 639 mmHg 90%
    01:00 +19°C° 0.3 mm 2 mps 638 mmHg 91%
    02:00 +20°C° 0.3 mm 1 mps 637 mmHg 91%
    03:00 +18°C° 0.3 mm 0 mps 637 mmHg 92%
    04:00 +18°C° 0 mm 0 mps 637 mmHg 92%
    05:00 +18°C° 0 mm 0 mps 637 mmHg 91%
    06:00 +18°C° 0 mm 0 mps 637 mmHg 92%
    07:00 +19°C° 0.1 mm 0 mps 638 mmHg 88%
    08:00 +20°C° 0.1 mm 0 mps 638 mmHg 83%
    09:00 +20°C° 0.1 mm 0 mps 638 mmHg 79%
    10:00 +24°C° 0.7 mm 1 mps 639 mmHg 73%
    11:00 +26°C° 0.7 mm 1 mps 639 mmHg 67%
    12:00 +27°C° 0.7 mm 2 mps 639 mmHg 61%
    13:00 +27°C° 2.2 mm 2 mps 639 mmHg 64%
    14:00 +27°C° 2.2 mm 2 mps 638 mmHg 66%
    15:00 +27°C° 2.2 mm 2 mps 637 mmHg 68%
    16:00 +25°C° 2.7 mm 1 mps 637 mmHg 75%
    17:00 +24°C° 2.7 mm 1 mps 637 mmHg 81%
    18:00 +23°C° 2.7 mm 1 mps 637 mmHg 88%
    19:00 +22°C° 5.1 mm 1 mps 637 mmHg 90%
    20:00 +22°C° 5.1 mm 1 mps 637 mmHg 93%
    21:00 +21°C° 5.1 mm 1 mps 637 mmHg 96%
    22:00 +21°C° 3.1 mm 1 mps 637 mmHg 95%
    23:00 +20°C° 3.1 mm 1 mps 638 mmHg 95%

    Tomorrow, 17 June, Monday

    Time Temperature Precipitation Wind Pressure Humidity
    00:00 +20°C° 3.1 mm 1 mps 638 mmHg 94%
    01:00 +20°C° 0.4 mm 1 mps 637 mmHg 94%
    02:00 +20°C° 0.4 mm 1 mps 637 mmHg 93%
    03:00 +20°C° 0.4 mm 1 mps 636 mmHg 93%
    04:00 +18°C° 0 mm 0 mps 636 mmHg 92%
    05:00 +18°C° 0 mm 0 mps 637 mmHg 91%
    06:00 +18°C° 0 mm 0 mps 637 mmHg 91%
    07:00 +19°C° 0 mm 0 mps 638 mmHg 85%
    08:00 +21°C° 0 mm 0 mps 638 mmHg 78%
    09:00 +22°C° 0 mm 0 mps 639 mmHg 72%
    10:00 +23°C° 0.7 mm 0 mps 639 mmHg 68%
    11:00 +26°C° 0.7 mm 1 mps 640 mmHg 65%
    12:00 +27°C° 0.7 mm 1 mps 640 mmHg 61%
    13:00 +28°C° 1.2 mm 1 mps 640 mmHg 60%
    14:00 +28°C° 1.2 mm 2 mps 639 mmHg 58%
    15:00 +28°C° 1.2 mm 2 mps 639 mmHg 57%
    16:00 +27°C° 0.8 mm 2 mps 639 mmHg 62%
    17:00 +27°C° 0.8 mm 1 mps 638 mmHg 66%
    18:00 +26°C° 0.8 mm 1 mps 638 mmHg 71%
    19:00 +25°C° 0.7 mm 1 mps 638 mmHg 76%
    20:00 +21°C° 0.7 mm 0 mps 638 mmHg 81%
    21:00 +20°C° 0.7 mm 0 mps 638 mmHg 85%
    22:00 +19°C° 0.1 mm 0 mps 638 mmHg 86%
    23:00 +19°C° 0.1 mm 0 mps 638 mmHg 87%

    Day after tomorrow, 18 June, Tuesday

    Time Temperature Precipitation Wind Pressure Humidity
    00:00 +19°C° 0.1 mm 0 mps 638 mmHg 87%
    01:00 +18°C° 0 mm 0 mps 638 mmHg 88%
    02:00 +18°C° 0 mm 0 mps 638 mmHg 88%
    03:00 +18°C° 0 mm 0 mps 637 mmHg 89%
    04:00 +17°C° 0 mm 0 mps 637 mmHg 89%
    05:00 +17°C° 0 mm 0 mps 637 mmHg 89%
    06:00 +17°C° 0 mm 0 mps 637 mmHg 90%
    07:00 +19°C° 0 mm 0 mps 638 mmHg 82%
    08:00 +21°C° 0 mm 0 mps 639 mmHg 75%
    09:00 +23°C° 0 mm 0 mps 640 mmHg 68%
    10:00 +27°C° 0 mm 1 mps 641 mmHg 62%
    11:00 +28°C° 0 mm 1 mps 641 mmHg 56%
    12:00 +29°C° 0 mm 1 mps 641 mmHg 51%
    13:00 +29°C° 0.6 mm 2 mps 641 mmHg 52%
    14:00 +29°C° 0.6 mm 2 mps 640 mmHg 53%
    15:00 +29°C° 0.6 mm 2 mps 640 mmHg 54%
    16:00 +28°C° 1.9 mm 2 mps 639 mmHg 61%
    17:00 +27°C° 1.9 mm 1 mps 639 mmHg 69%
    18:00 +25°C° 1.9 mm 1 mps 638 mmHg 77%
    19:00 +24°C° 1 mm 1 mps 638 mmHg 80%
    20:00 +21°C° 1 mm 0 mps 639 mmHg 83%
    21:00 +21°C° 1 mm 0 mps 639 mmHg 85%
    22:00 +20°C° 0.2 mm 0 mps 639 mmHg 86%
    23:00 +20°C° 0.2 mm 0 mps 639 mmHg 86%

    19 June, Wednesday

    Time Temperature Precipitation Wind Pressure Humidity
    00:00 +19°C° 0.2 mm 0 mps 639 mmHg 86%
    01:00 +19°C° 0.3 mm 0 mps 638 mmHg 86%
    02:00 +19°C° 0.3 mm 0 mps 638 mmHg 86%
    03:00 +21°C° 0.3 mm 1 mps 638 mmHg 86%
    04:00 +20°C° 0 mm 1 mps 638 mmHg 86%
    05:00 +20°C° 0 mm 1 mps 637 mmHg 87%
    06:00 +20°C° 0 mm 1 mps 637 mmHg 87%
    07:00 +22°C° 0 mm 1 mps 638 mmHg 81%
    08:00 +23°C° 0 mm 1 mps 639 mmHg 74%
    09:00 +23°C° 0 mm 0 mps 640 mmHg 68%
    10:00 +26°C° 0.2 mm 1 mps 640 mmHg 64%
    11:00 +27°C° 0.2 mm 1 mps 640 mmHg 60%
    12:00 +29°C° 0.2 mm 1 mps 640 mmHg 56%
    13:00 +29°C° 1.1 mm 1 mps 640 mmHg 56%
    14:00 +29°C° 1.1 mm 2 mps 639 mmHg 56%
    15:00 +29°C° 1.1 mm 2 mps 639 mmHg 56%
    16:00 +28°C° 1.8 mm 2 mps 638 mmHg 62%
    17:00 +27°C° 1.8 mm 1 mps 638 mmHg 67%
    18:00 +26°C° 1.8 mm 1 mps 638 mmHg 73%
    19:00 +25°C° 0.6 mm 1 mps 638 mmHg 77%
    20:00 +22°C° 0.6 mm 0 mps 638 mmHg 81%
    21:00 +20°C° 0.6 mm 0 mps 638 mmHg 85%
    22:00 +20°C° 0.3 mm 0 mps 638 mmHg 85%
    23:00 +20°C° 0.3 mm 0 mps 638 mmHg 86%

    20 June, Thursday

    Time Temperature Precipitation Wind Pressure Humidity
    00:00 +19°C° 0.3 mm 0 mps 638 mmHg 86%
    01:00 +19°C° 0 mm 0 mps 638 mmHg 87%
    02:00 +18°C° 0 mm 0 mps 637 mmHg 87%
    03:00 +18°C° 0 mm 0 mps 637 mmHg 88%
    04:00 +18°C° 0 mm 0 mps 637 mmHg 87%
    05:00 +18°C° 0 mm 0 mps 637 mmHg 87%
    06:00 +19°C° 0 mm 1 mps 637 mmHg 86%
    07:00 +21°C° 0 mm 1 mps 637 mmHg 80%
    08:00 +21°C° 0 mm 0 mps 638 mmHg 73%
    09:00 +23°C° 0 mm 0 mps 639 mmHg 67%
    10:00 +25°C° 0 mm 0 mps 639 mmHg 59%
    11:00 +28°C° 0 mm 1 mps 640 mmHg 52%
    12:00 +30°C° 0 mm 1 mps 640 mmHg 45%
    13:00 +30°C° 0.1 mm 1 mps 639 mmHg 44%
    14:00 +30°C° 0.1 mm 1 mps 639 mmHg 43%
    15:00 +30°C° 0.1 mm 1 mps 638 mmHg 43%
    16:00 +30°C° 0.1 mm 2 mps 638 mmHg 48%
    17:00 +29°C° 0.1 mm 2 mps 638 mmHg 54%
    18:00 +28°C° 0.1 mm 2 mps 638 mmHg 60%
    19:00 +26°C° 0.2 mm 2 mps 638 mmHg 68%
    20:00 +24°C° 0.2 mm 1 mps 638 mmHg 76%
    21:00 +23°C° 0.2 mm 1 mps 638 mmHg 83%
    22:00 +20°C° 0.2 mm 0 mps 638 mmHg 85%
    23:00 +20°C° 0.2 mm 0 mps 638 mmHg 86%

    21 June, Friday

    Time Temperature Precipitation Wind Pressure Humidity
    00:00 +20°C° 0.2 mm 0 mps 638 mmHg 87%
    01:00 +19°C° 0.1 mm 0 mps 638 mmHg 87%
    02:00 +19°C° 0.1 mm 0 mps 637 mmHg 88%
    03:00 +19°C° 0.1 mm 0 mps 637 mmHg 88%
    04:00 +20°C° 0 mm 1 mps 637 mmHg 89%
    05:00 +20°C° 0 mm 1 mps 637 mmHg 89%
    06:00 +20°C° 0 mm 1 mps 637 mmHg 89%
    07:00 +22°C° 0 mm 1 mps 638 mmHg 82%
    08:00 +22°C° 0 mm 0 mps 639 mmHg 76%
    09:00 +24°C° 0 mm 0 mps 640 mmHg 69%
    10:00 +25°C° 0.3 mm 0 mps 640 mmHg 64%
    11:00 +28°C° 0.3 mm 1 mps 640 mmHg 59%
    12:00 +30°C° 0.3 mm 1 mps 640 mmHg 53%
    13:00 +30°C° 0.3 mm 1 mps 640 mmHg 52%
    14:00 +30°C° 0.3 mm 2 mps 639 mmHg 51%
    15:00 +30°C° 0.3 mm 2 mps 639 mmHg 50%
    16:00 +29°C° 1.4 mm 2 mps 639 mmHg 58%
    17:00 +28°C° 1.4 mm 2 mps 638 mmHg 66%
    18:00 +26°C° 1.4 mm 2 mps 638 mmHg 74%
    19:00 +25°C° 1 mm 1 mps 638 mmHg 78%
    20:00 +24°C° 1 mm 1 mps 638 mmHg 82%
    21:00 +23°C° 1 mm 1 mps 638 mmHg 86%
    22:00 +22°C° 0.1 mm 1 mps 639 mmHg 87%
    23:00 +22°C° 0.1 mm 1 mps 639 mmHg 88%
    Show more